Météo par heure à Jurkowo

Ce jour, 20 Juin, Dimanche

Heure Température Précipitation Vent Pression Humidité
00:00 +22°C° 0 mm 3 m/s 752 mmHg 79%
01:00 +21°C° 0 mm 3 m/s 752 mmHg 81%
02:00 +21°C° 0 mm 3 m/s 752 mmHg 82%
03:00 +20°C° 0 mm 3 m/s 751 mmHg 84%
04:00 +20°C° 0 mm 3 m/s 751 mmHg 86%
05:00 +21°C° 0 mm 3 m/s 751 mmHg 81%
06:00 +23°C° 0 mm 4 m/s 752 mmHg 76%
07:00 +25°C° 0 mm 4 m/s 752 mmHg 71%
08:00 +26°C° 0 mm 5 m/s 752 mmHg 65%
09:00 +27°C° 0 mm 5 m/s 751 mmHg 59%
10:00 +28°C° 0 mm 6 m/s 751 mmHg 53%
11:00 +29°C° 0 mm 6 m/s 751 mmHg 50%
12:00 +30°C° 0 mm 6 m/s 751 mmHg 48%
13:00 +32°C° 0 mm 5 m/s 751 mmHg 45%
14:00 +32°C° 0 mm 5 m/s 750 mmHg 46%
15:00 +32°C° 0 mm 5 m/s 750 mmHg 47%
16:00 +32°C° 0 mm 4 m/s 750 mmHg 48%
17:00 +29°C° 0 mm 4 m/s 749 mmHg 55%
18:00 +28°C° 0 mm 3 m/s 749 mmHg 62%
19:00 +26°C° 0 mm 3 m/s 748 mmHg 69%
20:00 +25°C° 0 mm 3 m/s 749 mmHg 71%
21:00 +24°C° 0 mm 3 m/s 749 mmHg 74%
22:00 +22°C° 0 mm 3 m/s 749 mmHg 76%
23:00 +21°C° 0 mm 3 m/s 749 mmHg 78%

Demain, 21 Juin, Lundi

Heure Température Précipitation Vent Pression Humidité
00:00 +21°C° 0 mm 3 m/s 749 mmHg 80%
01:00 +20°C° 0 mm 3 m/s 749 mmHg 82%
02:00 +20°C° 0 mm 3 m/s 748 mmHg 83%
03:00 +20°C° 0 mm 3 m/s 748 mmHg 85%
04:00 +20°C° 0 mm 4 m/s 748 mmHg 86%
05:00 +21°C° 0 mm 4 m/s 748 mmHg 81%
06:00 +22°C° 0 mm 4 m/s 748 mmHg 77%
07:00 +25°C° 0 mm 4 m/s 748 mmHg 72%
08:00 +26°C° 0 mm 5 m/s 748 mmHg 68%
09:00 +27°C° 0 mm 5 m/s 748 mmHg 64%
10:00 +28°C° 0 mm 5 m/s 748 mmHg 59%
11:00 +29°C° 0 mm 5 m/s 748 mmHg 57%
12:00 +30°C° 0 mm 5 m/s 748 mmHg 54%
13:00 +32°C° 0 mm 4 m/s 747 mmHg 51%
14:00 +32°C° 0 mm 4 m/s 747 mmHg 51%
15:00 +32°C° 0 mm 4 m/s 747 mmHg 51%
16:00 +32°C° 0 mm 5 m/s 746 mmHg 51%
17:00 +30°C° 0 mm 4 m/s 746 mmHg 57%
18:00 +29°C° 0 mm 3 m/s 747 mmHg 64%
19:00 +27°C° 0 mm 2 m/s 747 mmHg 70%
20:00 +26°C° 0.4 mm 2 m/s 747 mmHg 76%
21:00 +24°C° 0.4 mm 2 m/s 747 mmHg 82%
22:00 +21°C° 0.4 mm 2 m/s 747 mmHg 88%
23:00 +21°C° 0.1 mm 2 m/s 747 mmHg 90%

Après-demain, 22 Juin, Mardi

Heure Température Précipitation Vent Pression Humidité
00:00 +20°C° 0.1 mm 3 m/s 747 mmHg 92%
01:00 +19°C° 0.1 mm 3 m/s 747 mmHg 94%
02:00 +19°C° 0 mm 3 m/s 747 mmHg 95%
03:00 +19°C° 0 mm 3 m/s 747 mmHg 95%
04:00 +18°C° 0 mm 2 m/s 747 mmHg 96%
05:00 +19°C° 0.3 mm 3 m/s 748 mmHg 93%
06:00 +20°C° 0.3 mm 3 m/s 748 mmHg 91%
07:00 +21°C° 0.3 mm 3 m/s 749 mmHg 89%
08:00 +22°C° 0.1 mm 3 m/s 749 mmHg 86%
09:00 +24°C° 0.1 mm 3 m/s 749 mmHg 84%
10:00 +24°C° 0.1 mm 3 m/s 749 mmHg 82%
11:00 +25°C° 0.2 mm 3 m/s 749 mmHg 78%
12:00 +26°C° 0.2 mm 3 m/s 749 mmHg 74%
13:00 +27°C° 0.2 mm 3 m/s 749 mmHg 71%
14:00 +27°C° 0.3 mm 3 m/s 749 mmHg 69%
15:00 +28°C° 0.3 mm 3 m/s 749 mmHg 67%
16:00 +28°C° 0.3 mm 2 m/s 749 mmHg 65%
17:00 +27°C° 0.5 mm 2 m/s 750 mmHg 71%
18:00 +26°C° 0.5 mm 3 m/s 750 mmHg 77%
19:00 +25°C° 0.5 mm 3 m/s 750 mmHg 83%
20:00 +22°C° 0.1 mm 3 m/s 750 mmHg 87%
21:00 +21°C° 0.1 mm 3 m/s 751 mmHg 91%
22:00 +20°C° 0.1 mm 3 m/s 751 mmHg 95%
23:00 +19°C° 0 mm 3 m/s 751 mmHg 94%

23 Juin, Mercredi

Heure Température Précipitation Vent Pression Humidité
00:00 +18°C° 0 mm 3 m/s 751 mmHg 93%
01:00 +17°C° 0 mm 3 m/s 752 mmHg 92%
02:00 +16°C° 0 mm 3 m/s 752 mmHg 91%
03:00 +16°C° 0 mm 3 m/s 752 mmHg 89%
04:00 +14°C° 0 mm 3 m/s 752 mmHg 88%
05:00 +17°C° 0 mm 3 m/s 752 mmHg 84%
06:00 +18°C° 0 mm 3 m/s 753 mmHg 79%
07:00 +19°C° 0 mm 4 m/s 753 mmHg 75%
08:00 +21°C° 0 mm 3 m/s 753 mmHg 71%
09:00 +24°C° 0 mm 3 m/s 753 mmHg 67%
10:00 +25°C° 0 mm 3 m/s 753 mmHg 64%
11:00 +26°C° 0 mm 3 m/s 753 mmHg 62%
12:00 +27°C° 0 mm 3 m/s 753 mmHg 60%
13:00 +28°C° 0 mm 3 m/s 753 mmHg 58%
14:00 +28°C° 0 mm 3 m/s 753 mmHg 57%
15:00 +28°C° 0 mm 2 m/s 753 mmHg 57%
16:00 +29°C° 0 mm 2 m/s 753 mmHg 57%
17:00 +28°C° 0 mm 2 m/s 753 mmHg 62%
18:00 +27°C° 0 mm 2 m/s 753 mmHg 68%
19:00 +26°C° 0 mm 2 m/s 753 mmHg 73%
20:00 +24°C° 0.5 mm 2 m/s 753 mmHg 78%
21:00 +23°C° 0.5 mm 2 m/s 754 mmHg 83%
22:00 +20°C° 0.5 mm 2 m/s 754 mmHg 88%
23:00 +20°C° 0.1 mm 2 m/s 754 mmHg 89%

24 Juin, Jeudi

Heure Température Précipitation Vent Pression Humidité
00:00 +19°C° 0.1 mm 2 m/s 754 mmHg 90%
01:00 +19°C° 0.1 mm 3 m/s 754 mmHg 92%
02:00 +18°C° 0.2 mm 2 m/s 754 mmHg 93%
03:00 +18°C° 0.2 mm 2 m/s 754 mmHg 93%
04:00 +18°C° 0.2 mm 2 m/s 754 mmHg 94%
05:00 +19°C° 0.1 mm 2 m/s 754 mmHg 91%
06:00 +21°C° 0.1 mm 2 m/s 754 mmHg 87%
07:00 +22°C° 0.1 mm 3 m/s 754 mmHg 83%
08:00 +24°C° 0 mm 3 m/s 754 mmHg 79%
09:00 +26°C° 0 mm 2 m/s 753 mmHg 74%
10:00 +27°C° 0 mm 2 m/s 753 mmHg 69%
11:00 +28°C° 0.1 mm 2 m/s 753 mmHg 66%
12:00 +29°C° 0.1 mm 2 m/s 753 mmHg 63%
13:00 +30°C° 0.1 mm 2 m/s 752 mmHg 60%
14:00 +29°C° 1.2 mm 2 m/s 752 mmHg 65%
15:00 +28°C° 1.2 mm 2 m/s 751 mmHg 70%
16:00 +27°C° 1.2 mm 3 m/s 751 mmHg 74%
17:00 +26°C° 6.9 mm 3 m/s 750 mmHg 81%
18:00 +23°C° 6.9 mm 4 m/s 750 mmHg 87%
19:00 +21°C° 6.9 mm 5 m/s 749 mmHg 94%
20:00 +20°C° 1 mm 4 m/s 750 mmHg 94%
21:00 +20°C° 1 mm 3 m/s 750 mmHg 94%
22:00 +20°C° 1 mm 2 m/s 750 mmHg 95%
23:00 +19°C° 0 mm 2 m/s 750 mmHg 95%

25 Juin, Vendredi

Heure Température Précipitation Vent Pression Humidité
00:00 +19°C° 0 mm 2 m/s 750 mmHg 95%
01:00 +18°C° 0 mm 2 m/s 750 mmHg 96%
02:00 +18°C° 0 mm 2 m/s 750 mmHg 95%
03:00 +18°C° 0 mm 2 m/s 749 mmHg 95%
04:00 +19°C° 0 mm 1 m/s 749 mmHg 94%
05:00 +19°C° 0 mm 2 m/s 749 mmHg 91%
06:00 +20°C° 0 mm 2 m/s 749 mmHg 87%
07:00 +21°C° 0 mm 2 m/s 749 mmHg 83%
08:00 +23°C° 0.7 mm 2 m/s 749 mmHg 81%
09:00 +24°C° 0.7 mm 2 m/s 749 mmHg 79%
10:00 +25°C° 0.7 mm 2 m/s 749 mmHg 77%
11:00 +24°C° 0.9 mm 3 m/s 749 mmHg 80%
12:00 +22°C° 0.9 mm 4 m/s 749 mmHg 82%
13:00 +22°C° 0.9 mm 5 m/s 749 mmHg 85%
14:00 +21°C° 0.3 mm 6 m/s 749 mmHg 85%
15:00 +21°C° 0.3 mm 6 m/s 749 mmHg 86%
16:00 +21°C° 0.3 mm 6 m/s 748 mmHg 87%
17:00 +20°C° 0.3 mm 6 m/s 749 mmHg 89%
18:00 +20°C° 0.3 mm 6 m/s 749 mmHg 91%
19:00 +19°C° 0.3 mm 5 m/s 749 mmHg 92%
20:00 +19°C° 0.1 mm 5 m/s 749 mmHg 93%
21:00 +19°C° 0.1 mm 5 m/s 750 mmHg 94%
22:00 +17°C° 0.1 mm 5 m/s 750 mmHg 95%
23:00 +17°C° 0.1 mm 5 m/s 750 mmHg 95%
Voir plus

Nous avons besoin de votre consentement

Meteoprog et ses fournisseurs de services peuvent stocker et accéder à des données personnelles telles que des cookies, des identifiants d'appareils ou d'autres technologies similaires sur votre appareil et traiter ces données pour personnaliser le contenu et les publicités, ainsi que pour fournir des fonctionnalités de médias sociaux et analyser le trafic.

  • Stocker et/ou accéder à des informations sur votre appareil

    Des cookies, des identifiants d'appareils ou d'autres informations peuvent être stockés ou accessibles sur votre appareil aux fins indiquées ci-dessus.

  • Annonces et contenus personnalisés, mesure des annonces et des contenus, connaissance de l'audience et développement de produits

    Les annonces et le contenu peuvent être personnalisés en fonction d'un profil. D'autres données peuvent être ajoutées pour mieux personnaliser les annonces et le contenu. Les performances des publicités et du contenu peuvent être mesurées. Il est possible d'obtenir des informations sur le public qui a vu les publicités et le contenu. Ces données peuvent être utilisées pour développer ou améliorer l'expérience de l'utilisateur, les systèmes et les logiciels.

En cliquant sur "J'accepte", vous autorisez l'utilisation de cookies, des identifiants d'appareils, des balises web ou d'autres technologies similaires. Vos paramètres peuvent être modifiés dans le navigateur de votre appareil.

Dans certains cas, des intérêts légitimes peuvent être invoqués plutôt qu'un consentement. Vous pouvez en savoir plus à ce sujet dans notre Politique de confidentialité et de cookies.